Find Starlink 2344

NORAD ID: 47885 Int'l Des: 2021-021 Owner: SPXS Country: US Constellation: starlink decayed
LEOCIRCULAR
Vis

Historical Track — Mar 3, 2025

3D地球を読み込み中...

Starlink 2344について

説明を読み込み中...

高度履歴

Loading altitude history...

軌道要素

1 47885U 21021AB 25062.61827535 .16953108 12537-4 61176-3 0 9999
2 47885 53.0333 107.4292 0003705 25.5943 111.3039 16.44262142220193
Epoch: Mar 3, 2025 • Age: 10388 hours

現在のステータス

Position data unavailable
打ち上げ日 Mar 14, 2021
運用期間 5.1 years
落下予定日 Mar 3, 2025
タイプ internet

技術仕様

分類 Payload
質量 260.00 kg
乾燥質量 248.00 kg
総質量 260.00 kg
長さ 0.20 m
直径 2.80 m
スパン 9.00 m
形状 Box + pan
製造者 SPXS
バスタイプ Starlink
フェーズステータス Unknown Transfer Status
所有者/国 SPXS/US

Most Searched